Location: Squirrel Cove
(50.1074°N, 124.9139°W)
Time: 13:55:19
(UTC-07:00)

Tiangong - Visible Passes

Search period start: 21 April 2024 00:00
Search period end: 01 May 2024 00:00
Orbit: 371 x 379 km, 41.5° (Epoch: 21 April)

Date Brightness Start Highest point End Pass type
(mag) Time Alt. Az. Time Alt. Az. Time Alt. Az.
21 Apr 0.0 22:13:27 10° SW 22:14:46 15° SSW 22:14:46 15° SSW visible
22 Apr -0.2 21:10:42 10° SW 21:12:47 17° S 21:14:52 10° SE visible
23 Apr 0.0 21:44:15 10° SW 21:46:00 14° SSW 21:46:52 13° S visible
25 Apr 0.3 21:15:03 10° SW 21:16:20 12° SSW 21:17:38 10° S visible
